Location: Home
(42.5358°N, 72.7383°W)
Time: 15:01:39
(UTC-05:00)

deb Explorer IX - Pass Details

Date: 04 December 2021
Orbit: 544 x 1082 km, 38.8° (Epoch: 16 January)

Event Time Altitude Azimuth Distance (km) Brightness Sun altitude
Rises 13:37:31 0° 271° (W) 2,770 ? 19.8°
Reaches altitude 10° 13:39:58 10° 262° (W) 1,833 ? 19.6°
Maximum altitude 13:43:43 34° 197° (SSW) 908 ? 19.3°
Drops below altitude 10° 13:47:26 10° 132° (SE) 1,809 ? 18.9°
Sets 13:49:50 0° 122° (ESE) 2,727 ? 18.7°
